Volver al catálogo

ARIANE 44P R/B

ActivoHEO
NORAD 25461·ROCKET BODY·🇫🇷 France

Lanzado Aug 25, 1998 desde Guiana Space Centre

Loading…

Próximos Pases (próximas 24 horas)

TLE

ActualizadoSource: Space-Track

Época: Sep 14, 2026, 08:31 UTC

1 25461U 98049B   26257.35488339  .00008134  00000-0  13707-2 0  9999
2 25461   4.0543 237.4998 5865612 258.6920  33.5426  4.25101383308318

Sigue ARIANE 44P R/B en tiempo real con AllMySat

Download on the App Store